Regional Weather Roundup
Issued by NWS

Home | Current Version | Previous Version | Graphics & Text | Print | Product List | Glossary On
Versions: 1 2 3 4 5 6 7 8 9 10 11 12 13 14 15 16 17 18 19 20 21 22 23 24 25 26 27 28 29 30 31 32 33 34 35 36 37 38 39 40 41 42 43 44 45 46 47 48 49 50
267
ASUS45 KBOU 190807
RWRCO

WEATHER ROUNDUP FOR COLORADO
NATIONAL WEATHER SERVICE DENVER/BOULDER CO
200 AM MDT TUE SEP 19 2017

NOTE: "FAIR" INDICATES FEW OR NO CLOUDS BELOW 12000 FEET WITH NO
SIGNIFICANT WEATHER AND/OR OBSTRUCTIONS TO VISIBILITY.

COZ001>005-013-030-031-190900-
...NORTHWEST COLORADO...

CITY           SKY/WX    TMP DP  RH WIND       PRES   REMARKS
CRAIG          FAIR      46  33  60 W6        29.87F
HAYDEN         FAIR      54  26  34 E9        29.91F
MEEKER         FAIR      56  26  31 N6        29.88F
RABBIT EARS PA FAIR      45  21  39 SW12G36   30.12R
STEAMBOAT SPGS FAIR      50  29  44 NE3       29.92F
WALDEN         FAIR      46  21  36 SE6       29.99F
$$

COZ006>008-011-190900-
...WEST CENTRAL VALLEYS...

CITY           SKY/WX    TMP DP  RH WIND       PRES   REMARKS
GRAND JUNCTION FAIR      61  29  29 SE7       29.84S
MONTROSE       FAIR      63  25  23 S10G21    29.96F
EAGLE          FAIR      50  26  39 E12       29.96F
RIFLE          FAIR      64  25  22 SW6       29.86F
DELTA          FAIR      58  27  30 MISG      29.92S
NUCLA          FAIR      59  23  25 SE5       30.02R
$$

COZ017>023-064>068-190900-
...SOUTHWEST COLORADO...

CITY           SKY/WX    TMP DP  RH WIND       PRES   REMARKS
DURANGO        FAIR      40  32  73 NE5       30.11F
CORTEZ         FAIR      45  32  60 E6        30.04F
PAGOSA SPRINGS FAIR      40  27  58 CALM      30.18F
TELLURIDE      FAIR      56  17  21 SE15G26   30.19F
WOLF CREEK PAS FAIR      37  16  41 S28G39    30.37F
$$

COZ009-010-012-014-032>034-037-058>063-190900-
...CENTRAL COLORADO...

CITY           SKY/WX    TMP DP  RH WIND       PRES   REMARKS
ASPEN          FAIR      50  24  36 S6        30.03F
BUENA VISTA    FAIR      39  26  59 SW6       30.07F
COPPER MTN     FAIR      45   9  23 SW18G31   30.27S
BERTHOUD PASS  FAIR      37  30  75 W39G58    30.22F
COTTONWOOD PAS FAIR      54  12  19 SE3       30.18S
GUNNISON       FAIR      37  30  75 E3        30.11F
KREMMLING      FAIR      50  28  43 SE3       29.98F
LEADVILLE      FAIR      47  12  24 SE13G23   30.14F
MONARCH PASS   FAIR      39  16  38 SW37      30.39F
SALIDA         FAIR      54  23  30 SE3       30.12S
SUNLIGHT       FAIR      41  19  42 S14G28    30.20F
WILKERSON PASS FAIR      43  18  36 SW23G36   30.23F
$$

COZ069>075-190900-
...SAN LUIS VALLEY/SANGRE DE CRISTO MOUNTAINS...

CITY           SKY/WX    TMP DP  RH WIND       PRES   REMARKS
ALAMOSA        FAIR      42  27  55 S8        30.11F
DEL NORTE      FAIR      42  25  51 W8        30.13F
LA VETA PASS   FAIR      50  19  29 MISG      30.28F
SAGUACHE       FAIR      37  32  81 NW8       30.13F
$$

COZ035-036-038>040-190900-
...NORTHERN COLORADO FRONT RANGE...

CITY           SKY/WX    TMP DP  RH WIND       PRES   REMARKS
DENVER INTL AP FAIR      62  35  36 SW8       29.79F
DMNS CITY PARK   N/A     63  35  35 SW12      29.79F
AURORA         CLEAR     63  34  34 S10       29.82F
FRONT RANGE AP FAIR      63  34  34 S10       29.81F
ERIE MUNI ARPT FAIR      49  35  58 CALM      29.83F
BOULDER MUN AP FAIR      59  32  36 S7        29.78F
CENTENNIAL     FAIR      62  32  32 S8        29.84F
BROOMFIELD     FAIR      63  30  29 CALM      29.82F
FORT COLLINS   FAIR      56  38  50 CALM      29.77F
LONGMONT       FAIR      51  38  59 S8        29.78F
$$

COZ041-046-047-076>085-087-088-190900-
...PIKES PEAK/PALMER DIVIDE AND SOUTHERN FOOTHILLS...

CITY           SKY/WX    TMP DP  RH WIND       PRES   REMARKS
COLO. SPRINGS  FAIR      55  36  48 N5        29.92F
A. F. ACADEMY  FAIR      51  34  51 CALM      29.93F
SCHRIEVER AFB  FAIR      55  30  38 MISG      29.92F
CHEYENNE MTN   NOT AVBL
ELLICOTT       NOT AVBL
FALCON         FAIR      52  33  48 W5        29.96F
FORT CARSON    FAIR      63  28  26 W8        29.89F
LIMON            N/A    N/A N/A N/A MISG      29.86F
MONUMENT HILL  FAIR      54  32  43 SW9       29.96F
CANON CITY     CLEAR     57  36  44 W10       29.89S
WALSENBURG     FAIR      63  23  22 W9        29.96F
TRINIDAD       FAIR      61  31  32 W15       29.95F
$$

COZ042>045-048>051-090-091-190900-
...NORTHEAST COLORADO...

CITY           SKY/WX    TMP DP  RH WIND       PRES   REMARKS
GREELEY ARPT   FAIR      51  41  68 NE5       29.77F
AKRON          FAIR      59  44  57 S16       29.79F
BURLINGTON     FAIR      61  55  81 S15       29.81F
WRAY           FAIR      61  50  67 E7        29.78F
YUMA           FAIR      50  34  53 S3        29.78F
STERLING       FAIR      63  46  55 SW9G17    29.73F
HOLYOKE        FAIR      59  50  72 SE7       29.77F
FORT MORGAN    FAIR      58  39  49 CALM      29.77F
$$

COZ086-089-092>099-190900-
...SOUTHEAST COLORADO...

CITY           SKY/WX    TMP DP  RH WIND       PRES   REMARKS
PUEBLO         FAIR      56  33  42 NW8       29.84F
LA JUNTA       FAIR      64  31  28 SW10      29.83S
LAMAR          FAIR      57  46  66 E5        29.80F
SPRINGFIELD      N/A     56  54  93 SW7       29.88F
$$




USA.gov is the U.S. government's official web portal to all federal, state and local government web resources and services.